カタログに戻る

STARLINK-4086

運用中通信VLEO
NORAD 52833·PAYLOAD·🇺🇸 United States

打ち上げ Jun 17, 2022 から Cape Canaveral Space Force Station

Loading…

次のパス (今後24時間)

TLE

最新Source: CelesTrak SupGP

元期: Sep 15, 2026, 01:21 UTC

1 52833C 22062D   26258.05673611  .00008713  00000+0  33819-3 0  2588
2 52833  53.1561 256.8575 0002982  35.4408 300.3128 15.25557954    13

AllMySatでSTARLINK-4086をリアルタイム追跡

Download on the App Store